Weather History for Fergus Falls, MN

Change the Weather History Date:

Sunday, October 7, 2012

  Actual Average Record
Temperature  
Mean Temperature 40 °F -  
Max Temperature 57 °F 60 °F 88 °F (1993)
Min Temperature 24 °F 38 °F 24 °F (2012)
Degree Days  
Heating Degree Days 24    
Moisture  
Dew Point 22 °F    
Average Humidity 54    
Maximum Humidity 86    
Minimum Humidity 23    
Precipitation  
Precipitation 0.00 in - - ()
Sea Level Pressure  
Sea Level Pressure 29.99 in    
Wind  
Wind Speed 9 mph (SSW)    
Max Wind Speed 21 mph    
Max Gust Speed 28 mph    
Visibility 10 miles    
Events      
Averages and records for this station are not official NWS values.
T = Trace of Precipitation, MM = Missing Value Source: NWS Daily Summary

Daily Weather History Graph

Daily Weather History Graph

Search for Another Location

Airport:

Trip Planner

Search our weather history database for the weather conditions in past years. The results will help you decide how hot, cold, wet, or windy it might be!

Date:

Astronomy

Oct. 07, 2012 Rise Set
Actual Time 7:31 AM CDT 6:52 PM CDT
Civil Twilight 7:01 AM CDT 7:22 PM CDT
Nautical Twilight 6:26 AM CDT 7:56 PM CDT
Astronomical Twilight 5:51 AM CDT 8:31 PM CDT
Moon 11:51 PM CDT (10/7) 2:23 PM CDT (10/7)
Length of Visible Light 12h 20m
Length of Day
11h 20m
Waning Gibbous, 56% of the Moon is Illuminated
Oct 7
Waning Gibbous
Oct 8
Last Quarter
Oct 15
New
Oct 21
First Quarter
Oct 29
Full

Hourly Weather History & Observations

Time (CDT) Temp. Windchill Dew Point Humidity Pressure Visibility Wind Dir Wind Speed Gust Speed Precip Events Conditions
12:13 AM 28.4 °F 21.2 °F 23.0 °F 80% 30.23 in 10.0 mi South 6.9 mph - N/A   Clear
12:33 AM 28.4 °F 21.2 °F 21.2 °F 74% 30.22 in 10.0 mi South 6.9 mph - N/A   Clear
12:53 AM 28.4 °F 21.2 °F 21.2 °F 74% 30.21 in 10.0 mi South 6.9 mph - N/A   Clear
1:13 AM 28.4 °F 20.4 °F 21.2 °F 74% 30.21 in 10.0 mi South 8.1 mph - N/A   Clear
1:33 AM 28.4 °F 20.4 °F 21.2 °F 74% 30.20 in 10.0 mi South 8.1 mph - N/A   Clear
1:53 AM 30.2 °F 22.6 °F 23.0 °F 75% 30.20 in 10.0 mi South 8.1 mph - N/A   Clear
2:13 AM 28.4 °F 21.2 °F 23.0 °F 80% 30.19 in 10.0 mi South 6.9 mph - N/A   Clear
2:33 AM 26.6 °F 19.1 °F 21.2 °F 80% 30.18 in 10.0 mi South 6.9 mph - N/A   Clear
2:53 AM 26.6 °F 20.0 °F 21.2 °F 80% 30.18 in 10.0 mi South 5.8 mph - N/A   Clear
3:13 AM 28.4 °F 21.2 °F 21.2 °F 74% 30.17 in 10.0 mi South 6.9 mph - N/A   Clear
3:53 AM 26.6 °F 21.2 °F 21.2 °F 80% 30.16 in 10.0 mi South 4.6 mph - N/A   Clear
4:13 AM 26.6 °F 20.0 °F 21.2 °F 80% 30.15 in 10.0 mi SSE 5.8 mph - N/A   Clear
4:33 AM 26.6 °F 19.1 °F 21.2 °F 80% 30.14 in 10.0 mi SSE 6.9 mph - N/A   Clear
4:53 AM 24.8 °F 17.9 °F 21.2 °F 86% 30.14 in 10.0 mi South 5.8 mph - N/A   Clear
5:13 AM 24.8 °F 16.9 °F 19.4 °F 80% 30.13 in 10.0 mi South 6.9 mph - N/A   Clear
5:33 AM 24.8 °F 16.9 °F 19.4 °F 80% 30.13 in 10.0 mi South 6.9 mph - N/A   Clear
5:53 AM 26.6 °F 19.1 °F 21.2 °F 80% 30.12 in 10.0 mi South 6.9 mph - N/A   Clear
6:13 AM 24.8 °F 16.9 °F 21.2 °F 86% 30.11 in 10.0 mi South 6.9 mph - N/A   Clear
6:33 AM 24.8 °F 17.9 °F 21.2 °F 86% 30.11 in 10.0 mi South 5.8 mph - N/A   Clear
6:53 AM 24.8 °F 16.9 °F 19.4 °F 80% 30.10 in 10.0 mi South 6.9 mph - N/A   Clear
7:13 AM 24.8 °F 16.1 °F 21.2 °F 86% 30.10 in 10.0 mi SSE 8.1 mph - N/A   Clear
7:33 AM 24.8 °F 16.9 °F 21.2 °F 86% 30.10 in 10.0 mi SSE 6.9 mph - N/A   Clear
7:53 AM 26.6 °F 18.2 °F 21.2 °F 80% 30.09 in 10.0 mi SSE 8.1 mph - N/A   Clear
8:13 AM 26.6 °F 19.1 °F 21.2 °F 80% 30.08 in 10.0 mi South 6.9 mph - N/A   Clear
8:33 AM 28.4 °F 21.2 °F 24.8 °F 86% 30.08 in 10.0 mi SSE 6.9 mph - N/A   Clear
8:53 AM 30.2 °F 22.6 °F 24.8 °F 80% 30.08 in 10.0 mi South 8.1 mph - N/A   Clear
9:13 AM 32.0 °F 24.8 °F 24.8 °F 75% 30.07 in 10.0 mi South 8.1 mph - N/A   Clear
9:33 AM 33.8 °F 26.4 °F 24.8 °F 70% 30.07 in 10.0 mi South 9.2 mph - N/A   Clear
9:53 AM 35.6 °F 29.2 °F 26.6 °F 70% 30.06 in 10.0 mi South 8.1 mph - N/A   Clear
10:14 AM 39.2 °F 32.0 °F 26.6 °F 61% 30.06 in 10.0 mi SSW 11.5 mph - N/A   Clear
10:33 AM 39.2 °F 32.0 °F 24.8 °F 56% 30.04 in 10.0 mi SSW 11.5 mph - N/A   Clear
10:53 AM 42.8 °F 36.6 °F 24.8 °F 49% 30.03 in 10.0 mi SW 11.5 mph - N/A   Clear
11:14 AM 46.4 °F 40.1 °F 24.8 °F 43% 30.02 in 10.0 mi SW 15.0 mph - N/A   Clear
11:33 AM 46.4 °F 40.4 °F 23.0 °F 40% 30.01 in 10.0 mi SW 13.8 mph - N/A   Clear
11:53 AM 50.0 °F - 21.2 °F 32% 30.00 in 10.0 mi SW 13.8 mph 18.4 mph N/A   Clear
12:13 PM 51.8 °F - 19.4 °F 28% 29.99 in 10.0 mi WSW 16.1 mph - N/A   Clear
12:33 PM 53.6 °F - 19.4 °F 26% 29.98 in 10.0 mi SW 16.1 mph - N/A   Clear
12:53 PM 53.6 °F - 21.2 °F 28% 29.97 in 10.0 mi WSW 16.1 mph 19.6 mph N/A   Clear
1:33 PM 53.6 °F - 21.2 °F 28% 29.95 in 10.0 mi West 18.4 mph - N/A   Clear
1:53 PM 53.6 °F - 21.2 °F 28% 29.94 in 10.0 mi WSW 17.3 mph 21.9 mph N/A   Clear
2:13 PM 55.4 °F - 21.2 °F 26% 29.93 in 10.0 mi West 18.4 mph 27.6 mph N/A   Scattered Clouds
2:33 PM 55.4 °F - 21.2 °F 26% 29.92 in 10.0 mi WSW 20.7 mph 25.3 mph N/A   Clear
2:53 PM 55.4 °F - 21.2 °F 26% 29.91 in 10.0 mi WSW 13.8 mph 23.0 mph N/A   Scattered Clouds
3:13 PM 57.2 °F - 21.2 °F 25% 29.90 in 10.0 mi WSW 17.3 mph 20.7 mph N/A   Scattered Clouds
3:33 PM 55.4 °F - 21.2 °F 26% 29.89 in 10.0 mi SW 15.0 mph 23.0 mph N/A   Mostly Cloudy
3:53 PM 55.4 °F - 21.2 °F 26% 29.89 in 10.0 mi WSW 11.5 mph 19.6 mph N/A   Overcast
4:13 PM 57.2 °F - 19.4 °F 23% 29.88 in 10.0 mi WSW 18.4 mph 21.9 mph N/A   Mostly Cloudy
4:33 PM 55.4 °F - 19.4 °F 25% 29.87 in 10.0 mi WSW 10.4 mph - N/A   Overcast
4:53 PM 57.2 °F - 19.4 °F 23% 29.87 in 10.0 mi WSW 11.5 mph - N/A   Scattered Clouds
5:13 PM 55.4 °F - 19.4 °F 25% 29.86 in 10.0 mi WSW 11.5 mph 18.4 mph N/A   Clear
5:33 PM 57.2 °F - 19.4 °F 23% 29.86 in 10.0 mi West 8.1 mph 17.3 mph N/A   Clear
5:53 PM 55.4 °F - 19.4 °F 25% 29.85 in 10.0 mi WSW 9.2 mph - N/A   Clear
6:13 PM 55.4 °F - 19.4 °F 25% 29.85 in 10.0 mi SW 8.1 mph - N/A   Clear
6:33 PM 51.8 °F - 21.2 °F 30% 29.84 in 10.0 mi SSW 8.1 mph - N/A   Clear
6:53 PM 50.0 °F - 21.2 °F 32% 29.84 in 10.0 mi SSW 8.1 mph - N/A   Clear
7:13 PM 48.2 °F - 21.2 °F 34% 29.84 in 10.0 mi South 8.1 mph - N/A   Clear
7:33 PM 48.2 °F - 21.2 °F 34% 29.84 in 10.0 mi South 8.1 mph - N/A   Clear
7:50 PM 46.4 °F 42.9 °F 21.2 °F 37% 29.84 in 10.0 mi South 6.9 mph - N/A   Clear
8:13 PM 44.6 °F 41.4 °F 21.2 °F 39% 29.84 in 10.0 mi South 5.8 mph - N/A   Clear
8:33 PM 44.6 °F 40.7 °F 21.2 °F 39% 29.84 in 10.0 mi South 6.9 mph - N/A   Clear
8:54 PM 42.8 °F 38.6 °F 21.2 °F 42% 29.84 in 10.0 mi South 6.9 mph - N/A   Clear
9:13 PM 39.2 °F 34.2 °F 21.2 °F 49% 29.83 in 10.0 mi South 6.9 mph - N/A   Clear
9:33 PM 41.0 °F 37.1 °F 21.2 °F 45% 29.84 in 10.0 mi South 5.8 mph - N/A   Clear
9:54 PM 39.2 °F 34.2 °F 21.2 °F 49% 29.83 in 10.0 mi South 6.9 mph - N/A   Clear
10:13 PM 37.4 °F 32.1 °F 21.2 °F 52% 29.83 in 10.0 mi SSE 6.9 mph - N/A   Clear
10:33 PM 37.4 °F 32.1 °F 21.2 °F 52% 29.83 in 10.0 mi SSE 6.9 mph - N/A   Clear
10:53 PM 37.4 °F 32.8 °F 21.2 °F 52% 29.82 in 10.0 mi SSE 5.8 mph - N/A   Clear
11:13 PM 37.4 °F 32.8 °F 21.2 °F 52% 29.82 in 10.0 mi SSE 5.8 mph - N/A   Clear
11:33 PM 37.4 °F 32.8 °F 21.2 °F 52% 29.81 in 10.0 mi SSE 5.8 mph - N/A   Clear
11:53 PM 37.4 °F 32.8 °F 21.2 °F 52% 29.81 in 10.0 mi SSE 5.8 mph - N/A   Clear